Olathe, KS

8:54 PM CST on January 23, 2018 (GMT -0600)
Johnson County Executive

Weather History for KOJC - November, 2013

Change the Weather History Date:

Friday, November 8, 2013

  Actual Average Record
Temperature  
Mean Temperature 48 °F 48 °F  
Max Temperature 63 °F 57 °F 81 °F (1980)
Min Temperature 33 °F 38 °F 8 °F (1991)
Degree Days  
Heating Degree Days 17 17  
Month to date heating degree days 135 126  
Since 1 July heating degree days 483 451  
Cooling Degree Days 0 0  
Month to date cooling degree days 0 0  
Year to date cooling degree days 1360 1349  
Moisture  
Dew Point 32 °F    
Average Humidity 60    
Maximum Humidity 89    
Minimum Humidity 30    
Precipitation  
Precipitation 0.00 in 0.08 in 1.04 in (2011)
Month to date precipitation 0.88 0.77  
Year to date precipitation 35.76 36.68  
Sea Level Pressure  
Sea Level Pressure 30.09 in    
Wind  
Wind Speed 14 mph (South)    
Max Wind Speed 31 mph    
Max Gust Speed 42 mph    
Visibility 10 miles    
Events      
T = Trace of Precipitation, MM = Missing Value Source: NWS Daily Summary

Daily Weather History Graph

Daily Weather History Graph

Search for Another Location

Airport or City:

Trip Planner

Search our weather history database for the weather conditions in past years. The results will help you decide how hot, cold, wet, or windy it might be!

Date:

Astronomy

Nov. 08, 2013 Rise Set
Actual Time 6:54 AM CST 5:10 PM CST
Civil Twilight 6:25 AM CST 5:38 PM CST
Nautical Twilight 5:54 AM CST 6:10 PM CST
Astronomical Twilight 5:22 AM CST 6:42 PM CST
Moon 11:50 AM CST (11/8) 10:32 PM CST (11/8)
Length of Visible Light 11h 12m
Length of Day
10h 16m
Waxing Crescent, 33% of the Moon is Illuminated
Nov 8
Waxing Crescent
Nov 9
First Quarter
Nov 17
Full
Nov 25
Last Quarter
Dec 2
New

Hourly Weather History & Observations

Time (CST) Temp. Windchill Dew Point Humidity Pressure Visibility Wind Dir Wind Speed Gust Speed Precip Events Conditions
12:53 AM 36.0 °F 33.3 °F 30.9 °F 82% 30.33 in 10.0 mi ESE 3.5 mph - N/A   Clear
1:53 AM 35.1 °F 29.3 °F 26.1 °F 70% 30.31 in 10.0 mi SE 6.9 mph - N/A   Clear
2:53 AM 36.0 °F 30.3 °F 26.1 °F 67% 30.30 in 10.0 mi SE 6.9 mph - N/A   Clear
3:53 AM 37.0 °F 31.6 °F 26.1 °F 65% 30.28 in 10.0 mi SE 6.9 mph - N/A   Clear
4:53 AM 37.0 °F 31.0 °F 27.0 °F 67% 30.27 in 10.0 mi SSE 8.1 mph - N/A   Clear
5:53 AM 37.0 °F 29.8 °F 28.0 °F 70% 30.25 in 10.0 mi SSE 10.4 mph - N/A   Clear
6:53 AM 37.9 °F 30.0 °F 28.9 °F 70% 30.23 in 10.0 mi SSE 12.7 mph - N/A   Clear
7:53 AM 39.0 °F 32.3 °F 30.0 °F 70% 30.22 in 10.0 mi SSE 10.4 mph - N/A   Clear
8:53 AM 44.1 °F 37.7 °F 34.0 °F 68% 30.19 in 10.0 mi South 12.7 mph - N/A   Clear
9:53 AM 51.1 °F - 35.1 °F 54% 30.17 in 10.0 mi South 16.1 mph 23.0 mph N/A   Clear
10:53 AM 55.9 °F - 36.0 °F 47% 30.12 in 10.0 mi South 17.3 mph 26.5 mph N/A   Clear
11:53 AM 57.9 °F - 34.0 °F 41% 30.08 in 10.0 mi South 24.2 mph 35.7 mph N/A   Clear
12:53 PM 61.0 °F - 34.0 °F 36% 30.00 in 10.0 mi South 23.0 mph 32.2 mph N/A   Clear
1:53 PM 61.0 °F - 30.9 °F 32% 29.96 in 10.0 mi South 21.9 mph 35.7 mph N/A   Clear
2:53 PM 63.0 °F - 30.9 °F 30% 29.92 in 10.0 mi SSW 21.9 mph 40.3 mph N/A   Clear
3:53 PM 62.1 °F - 32.0 °F 32% 29.91 in 10.0 mi SSW 26.5 mph 35.7 mph N/A   Clear
4:53 PM 60.1 °F - 33.1 °F 36% 29.91 in 10.0 mi South 16.1 mph 33.4 mph N/A   Clear
5:53 PM 57.9 °F - 34.0 °F 41% 29.92 in 10.0 mi SSW 16.1 mph 26.5 mph N/A   Clear
6:53 PM 55.9 °F - 35.1 °F 45% 29.95 in 10.0 mi SSW 15.0 mph - N/A   Clear
7:53 PM 54.0 °F - 35.1 °F 49% 29.96 in 10.0 mi SSW 12.7 mph - N/A   Clear
8:53 PM 54.0 °F - 35.1 °F 49% 29.96 in 10.0 mi SSW 13.8 mph 25.3 mph N/A   Clear
9:53 PM 53.1 °F - 35.1 °F 50% 29.97 in 10.0 mi SSW 12.7 mph 25.3 mph N/A   Clear
10:53 PM 52.0 °F - 35.1 °F 53% 29.97 in 10.0 mi SSW 13.8 mph 25.3 mph N/A   Clear
11:53 PM 51.1 °F - 35.1 °F 54% 29.98 in 10.0 mi SSW 11.5 mph - N/A   Clear